Find Starlink 31990

NORAD ID: 60024 Int'l Des: 2024-111 Owner: SPXS Country: US Constellation: starlink operational
LEOCIRCULAR

Current View

Loading 3D Globe...

About Starlink 31990

Starlink 31990 (NORAD 60024) is a starlink constellation satellite (v2 mini) launched Jun 8, 2024 by SPXS of US. It operates in LEO, CIRCULAR orbit with a mass of 730.00 kg.

About Starlink 31990

Description loading...

Upcoming Passes

Passes for default location (London). Set your location on the main map for personalized predictions.

Altitude History

Loading altitude history...

Two-Line Element Set

1 60024U 24111J 26171.42769459 -.00000139 00000-0 74241-5 0 9991
2 60024 53.1614 318.3840 0001194 82.6942 277.4195 15.30193097114769
Epoch: Jun 20, 2026 • Age: 14 hours

Current Status

Altitude 480.4 km
Velocity 7.63 km/s
Sub-Earth Point 50.47°N, 100.48°E
Launch Date Jun 8, 2024
Age 2 years
Type internet

Technical Details

Classification Payload
Mass 730.00 kg
Dry Mass 700.00 kg
Total Mass 730.00 kg
Length 0.30 m
Diameter 4.10 m
Span 29.00 m
Shape Box + pan
Manufacturer SPXS
Bus Type Starlink V2M
Phase Status In Orbit
Owner/State SPXS/US

Most Searched